Dewpoint
22 22 22 23 23 19 14 18 14 14 20 25 29 29 35 41 43 51 55 57 59 61 63 65 66 67 68 70 71 72 72 73
23 22 22 22 22 18 17 15 14 14 21 18 31 30 32 37 41 45 48 54 57 60 61 63 64 66 67 69 70 71 72 72
25 23 21 20 21 21 19 18 11 8 9 28 34 39 35 34 38 42 46 49 52 58 61 62 62 64 66 68 70 71 71 72
22 24 23 23 22 23 18 25 18 15 12 22 28 32 36 34 36 42 48 51 52 53 57 59 62 63 64 66 67 69 71 72
23 21 21 23 23 22 21 21 26 16 15 23 26 29 32 32 36 43 48 51 53 52 56 58 60 63 63 65 65 66 70 70
22 25 27 27 22 24 21 20 22 21 20 23 26 30 32 35 38 40 46 53 55 55 58 59 61 63 64 64 64 66 67 69
27 26 25 26 25 25 24 25 24 23 24 26 29 31 33 33 38 41 43 47 51 55 60 63 63 64 64 64 66 66 69 68
24 23 25 25 26 26 25 24 23 23 23 26 29 34 35 34 37 41 40 44 50 57 59 61 63 63 64 65 66 68 69 69
19 23 21 21 23 24 24 25 23 23 25 27 27 30 34 37 39 42 41 44 48 54 58 60 60 63 63 65 66 68 69 70
15 20 17 21 26 26 27 27 25 25 26 28 32 35 38 38 38 40 42 43 48 43 52 61 57 56 63 64 68 69 70 70
15 15 20 19 22 38 40 30 39 35 29 27 27 30 38 37 38 42 43 45 46 43 49 61 61 62 65 65 67 69 69 70
20 13 14 22 22 28 48 32 51 53 50 40 29 26 29 41 38 36 38 41 45 46 52 54 61 59 63 64 66 68 69 70
20 18 18 23 31 52 37 34 53 54 55 56 52 37 44 44 44 48 49 47 47 48 52 57 59 59 65 65 66 67 68 69
24 19 15 26 35 30 45 54 55 56 56 57 59 58 47 55 62 66 66 64 50 53 59 64 64 63 66 68 68 69 70 71
27 23 33 36 43 52 56 56 56 57 57 57 59 59 56 62 65 66 67 67 65 64 66 67 67 67 67 69 69 70 71 73
30 29 33 34 39 40 54 56 57 57 57 57 60 59 59 59 59 62 65 65 63 63 64 65 68 69 70 71 71 70 71 72
34 35 37 39 41 42 46 56 57 57 58 58 58 57 58 59 60 59 60 61 62 63 63 64 65 65 64 65 71 72 70 70
31 35 38 43 40 46 53 55 57 57 59 59 60 58 58 61 62 62 62 63 63 63 63 64 65 65 65 66 65 67 68 68
38 40 42 46 48 52 54 56 57 58 59 60 59 60 60 60 60 60 63 63 63 65 66 66 66 66 67 68 67 66 66 67
Lifted_Index
9 9 9 8 7 6 5 4 3 3 4 5 5 5 3 2 1 0 -1 -2 -3 -3 -3 -3 -3 -3 -3 -3 -3 -3 -3 -4
8 9 9 8 7 7 6 3 2 2 3 4 5 4 3 2 2 1 0 -1 -2 -3 -3 -3 -3 -3 -3 -3 -3 -4 -4 -4
8 8 8 8 8 7 6 3 1 1 3 5 5 4 3 2 2 1 1 -0 -1 -2 -3 -4 -4 -3 -3 -3 -4 -4 -4 -5
7 8 8 8 8 7 6 4 3 2 3 6 7 6 4 3 2 2 1 0 -1 -2 -2 -3 -3 -3 -3 -3 -4 -4 -5 -5
6 7 8 8 8 8 7 6 4 3 4 7 7 6 6 4 3 3 2 1 -0 -1 -1 -2 -3 -3 -3 -3 -3 -4 -5 -5
5 6 7 8 8 9 8 7 5 4 5 7 7 7 6 5 4 4 3 1 1 -0 -1 -2 -2 -2 -2 -3 -3 -4 -4 -4
6 6 7 7 8 8 8 7 5 4 6 8 9 8 7 6 5 4 3 2 1 0 -1 -1 -2 -2 -2 -2 -3 -3 -4 -4
7 7 7 7 7 7 8 8 7 6 6 9 10 9 8 7 6 5 4 3 2 1 -0 -1 -2 -2 -2 -2 -3 -3 -4 -4
6 6 6 6 7 8 8 8 7 7 8 9 9 9 9 8 7 7 5 4 3 2 1 -0 -1 -2 -2 -2 -3 -4 -4 -4
6 6 6 7 8 8 8 8 8 8 8 9 9 9 8 8 7 7 6 5 5 4 3 1 -0 -1 -2 -3 -3 -4 -4 -5
7 6 6 8 9 8 7 7 7 7 8 8 9 8 8 7 7 6 6 6 6 5 4 2 1 -0 -2 -3 -3 -4 -4 -5
8 7 7 9 9 7 6 5 5 5 5 6 7 7 7 6 6 5 6 6 6 5 5 4 2 1 -1 -2 -3 -4 -5 -5
9 8 9 10 9 6 6 5 3 3 3 4 5 6 6 5 4 3 3 4 4 5 4 3 2 1 -0 -2 -3 -4 -5 -5
10 10 10 11 9 6 5 3 2 2 2 2 2 3 4 2 0 -1 -1 0 2 3 2 1 1 0 -1 -2 -3 -4 -5 -6
10 11 12 11 9 7 4 2 2 1 1 1 1 1 1 0 -2 -3 -3 -2 -1 -0 -0 -1 -1 -2 -2 -3 -3 -4 -5 -6
10 11 12 12 10 8 5 3 1 1 0 -0 -1 -1 -0 -1 -1 -2 -2 -2 -2 -1 -1 -2 -2 -2 -2 -3 -4 -5 -6 -6
9 10 10 10 10 9 6 3 1 -0 -1 -2 -2 -1 -1 -1 -1 -1 -1 -1 -1 -1 -1 -1 -1 -1 -1 -1 -3 -5 -5 -6
8 8 8 8 8 7 4 2 -0 -1 -2 -3 -3 -2 -2 -2 -1 -1 -1 -0 -0 -0 -0 -0 -0 -0 0 -0 -2 -3 -4 -4
6 6 7 7 6 5 3 1 -1 -2 -3 -3 -3 -3 -3 -2 -1 -1 -1 -0 -0 -0 -1 -1 -0 -0 -0 -0 -1 -1 -2 -3